This demonstration page uses our WeatherBlox Daily Observations layout. Learn more.

40.92945, -100.16068

Hourly Observations for December 18, 2015

Temp ( °F °C ) Dew Point ( °F °C ) Humidity (%) Winds ( mph kmh ) Pressure ( in mb ) Visibility ( mi km ) Precip ( " mm )
12:15 am 00:15 Clear 10 -12 7 -14 85 85 WSW 5 7 30.33 1027 10 16.09344 0 0
12:35 am 00:35 Clear 9 -13 7 -14 92 92 WSW 5 7 30.36 1028 10 16.09344 0 0
12:55 am 00:55 Clear 9 -13 5 -15 85 85 WSW 5 7 30.33 1027 10 16.09344 0 0
1:15 am 01:15 Clear 9 -13 5 -15 85 85 W 3 6 30.33 1027 10 16.09344 0 0
1:35 am 01:35 Clear 9 -13 5 -15 85 85 SW 5 7 30.27 1025 10 16.09344 0 0
1:55 am 01:55 Clear 9 -13 5 -15 85 85 W 3 6 30.27 1025 10 16.09344 0 0
2:15 am 02:15 Clear 9 -13 5 -15 85 85 Calm 30.33 1027 10 16.09344 0 0
2:35 am 02:35 Clear 9 -13 7 -14 92 92 Calm 30.33 1027 10 16.09344 0 0
2:55 am 02:55 Clear 7 -14 3 -16 85 85 W 3 6 30.33 1027 10 16.09344 0 0
3:15 am 03:15 Clear 9 -13 5 -15 85 85 W 5 7 30.27 1025 10 16.09344 0 0
3:35 am 03:35 Clear 9 -13 5 -15 85 85 WNW 6 9 30.27 1025 10 16.09344 0 0
3:55 am 03:55 Clear 3 -16 0 -18 85 85 WNW 3 6 30.33 1027 10 16.09344 0 0
4:15 am 04:15 Clear 0 -18 -4 -20 84 84 W 5 7 30.33 1027 10 16.09344 0 0
4:35 am 04:35 Clear 9 -13 5 -15 85 85 W 10 17 30.27 1025 10 16.09344 0 0
4:55 am 04:55 Clear 12 -11 7 -14 79 79 W 10 17 30.27 1025 10 16.09344 0 0
5:15 am 05:15 Clear 10 -12 5 -15 79 79 W 9 15 30.27 1025 10 16.09344 0 0
5:35 am 05:35 Clear 9 -13 3 -16 78 78 W 7 11 30.27 1025 10 16.09344 0 0
5:55 am 05:55 Clear 7 -14 3 -16 85 85 WNW 5 7 30.3 1026 10 16.09344 0 0
6:15 am 06:15 Clear 1 -17 -2 -19 85 85 Calm 30.33 1027 10 16.09344 0 0
6:35 am 06:35 Clear 3 -16 0 -18 85 85 Calm 30.33 1027 10 16.09344 0 0
6:55 am 06:55 Clear 3 -16 0 -18 85 85 Calm 30.33 1027 10 16.09344 0 0
7:15 am 07:15 Clear 5 -15 1 -17 85 85 W 5 7 30.3 1026 10 16.09344 0 0
7:35 am 07:35 Clear 5 -15 1 -17 85 85 Calm 30.3 1026 10 16.09344 0 0
7:55 am 07:55 Clear 5 -15 3 -16 92 92 Calm 30.3 1026 10 16.09344 0 0
8:15 am 08:15 Sunny 5 -15 1 -17 85 85 NNW 3 6 30.3 1026 10 16.09344 0 0
8:35 am 08:35 Sunny 5 -15 1 -17 85 85 Calm 30.3 1026 10 16.09344 0 0
8:55 am 08:55 Sunny 7 -14 3 -16 85 85 Calm 30.3 1026 10 16.09344 0 0
9:15 am 09:15 Sunny 9 -13 5 -15 85 85 NW 3 6 30.27 1025 10 16.09344 0 0
9:35 am 09:35 Sunny 10 -12 7 -14 85 85 WNW 5 7 30.27 1025 10 16.09344 0 0
9:55 am 09:55 Sunny 14 -10 10 -12 85 85 WNW 6 9 30.24 1024 10 16.09344 0 0
10:15 am 10:15 Sunny 18 -8 12 -11 79 79 WNW 8 13 30.24 1024 10 16.09344 0 0
10:35 am 10:35 Sunny 18 -8 12 -11 79 79 WNW 8 13 30.27 1025 10 16.09344 0 0
10:55 am 10:55 Sunny 19 -7 12 -11 73 73 NW 8 13 30.24 1024 10 16.09344 0 0
11:15 am 11:15 Sunny 21 -6 14 -10 74 74 WNW 12 19 30.24 1024 10 16.09344 0 0
11:35 am 11:35 Sunny 23 -5 14 -10 68 68 WNW 12 19 30.24 1024 10 16.09344 0 0
11:55 am 11:55 Sunny 23 -5 16 -9 74 74 WNW 12 19 30.24 1024 10 16.09344 0 0
12:15 pm 12:15 Sunny 25 -4 16 -9 69 69 WNW 10 17 30.21 1023 10 16.09344 0 0
12:35 pm 12:35 Sunny 27 -3 18 -8 69 69 NW 10 17 30.18 1022 10 16.09344 0 0
12:55 pm 12:55 Sunny 27 -3 18 -8 69 69 WNW 8 13 30.18 1022 10 16.09344 0 0
1:15 pm 13:15 Sunny 28 -2 18 -8 64 64 WNW 7 11 30.18 1022 10 16.09344 0 0
1:35 pm 13:35 Sunny 28 -2 18 -8 64 64 WNW 7 11 30.18 1022 10 16.09344 0 0
1:55 pm 13:55 Sunny 28 -2 19 -7 69 69 W 7 11 30.18 1022 10 16.09344 0 0
2:15 pm 14:15 Sunny 30 -1 19 -7 64 64 WNW 5 7 30.15 1021 10 16.09344 0 0
2:35 pm 14:35 Sunny 30 -1 19 -7 64 64 WNW 5 7 30.15 1021 10 16.09344 0 0
2:55 pm 14:55 Sunny 30 -1 19 -7 64 64 Calm 30.18 1022 10 16.09344 0 0
3:15 pm 15:15 Sunny 32 0 19 -7 60 60 Calm 30.18 1022 10 16.09344 0 0
3:35 pm 15:35 Sunny 32 0 19 -7 60 60 Calm 30.18 1022 10 16.09344 0 0
3:55 pm 15:55 Sunny 32 0 19 -7 60 60 Calm 30.21 1023 10 16.09344 0 0
4:15 pm 16:15 Sunny 30 -1 21 -6 69 69 ENE 3 6 30.18 1022 10 16.09344 0 0
4:35 pm 16:35 Sunny 27 -3 19 -7 74 74 ENE 3 6 30.21 1023 10 16.09344 0.01 0.254
4:55 pm 16:55 Sunny 28 -2 19 -7 69 69 Calm 30.24 1024 10 16.09344 0.01 0.254
5:15 pm 17:15 Clear 27 -3 19 -7 74 74 E 5 7 30.24 1024 10 16.09344 0 0
5:35 pm 17:35 Clear 25 -4 19 -7 80 80 Calm 30.24 1024 10 16.09344 0 0
5:55 pm 17:55 Clear 25 -4 18 -8 74 74 Calm 30.24 1024 10 16.09344 0 0
6:15 pm 18:15 Clear 23 -5 19 -7 86 86 Calm 30.27 1025 10 16.09344 0 0
6:35 pm 18:35 Clear 23 -5 18 -8 80 80 E 5 7 30.27 1025 10 16.09344 0 0
6:55 pm 18:55 Clear 21 -6 18 -8 86 86 Calm 30.3 1026 10 16.09344 0 0
7:15 pm 19:15 Clear 19 -7 16 -9 86 86 SW 5 7 30.33 1027 10 16.09344 0 0
7:35 pm 19:35 Clear 18 -8 14 -10 86 86 Calm 30.33 1027 10 16.09344 0 0
7:55 pm 19:55 Clear 19 -7 16 -9 86 86 Calm 30.33 1027 10 16.09344 0 0
8:15 pm 20:15 Clear 19 -7 16 -9 86 86 Calm 30.36 1028 10 16.09344 0 0
8:35 pm 20:35 Clear 19 -7 16 -9 86 86 Calm 30.36 1028 10 16.09344 0 0
8:55 pm 20:55 Clear 19 -7 16 -9 86 86 Calm 30.36 1028 10 16.09344 0 0
9:15 pm 21:15 Clear 14 -10 12 -11 92 92 Calm 30.39 1029 10 16.09344 0 0
9:35 pm 21:35 Clear 16 -9 14 -10 93 93 Calm 30.36 1028 10 16.09344 0 0
9:55 pm 21:55 Clear 14 -10 12 -11 92 92 Calm 30.39 1029 10 16.09344 0 0
10:15 pm 22:15 Clear 14 -10 10 -12 85 85 ENE 3 6 30.39 1029 10 16.09344 0 0
10:35 pm 22:35 Clear 12 -11 10 -12 92 92 Calm 30.39 1029 10 16.09344 0 0
10:55 pm 22:55 Clear 12 -11 10 -12 92 92 Calm 30.39 1029 10 16.09344 0 0
11:15 pm 23:15 Clear 12 -11 10 -12 92 92 E 3 6 30.39 1029 10 16.09344 0 0
11:35 pm 23:35 Clear 12 -11 10 -12 92 92 ENE 3 6 30.39 1029 10 16.09344 0 0
11:55 pm 23:55 Clear 14 -10 10 -12 85 85 E 3 6 30.39 1029 10 16.09344 0 0

Powered by AerisWeather